GW2822 Weather Reports


time (UTC)temp
C
wind
direction
speed
KPH
gust
KPH
rain 1hr
cm
rain 24hr
cm
rain mn
cm
humidity
%
barometer
mb
20260903154533 29 201 9.7 17.7 0.00 0.00 0.00 72 1010.3
20260903154023 29 216 11.3 17.7 0.00 0.00 0.00 72 1010.3
20260903153512 28 215 6.4 16.1 0.00 0.00 0.00 74 1010.3
20260903153001 28 200 8.0 17.7 0.00 0.00 0.00 74 1010.3
20260903152552 28 175 11.3 17.7 0.00 0.00 0.00 74 1010.4
20260903152042 28 206 11.3 17.7 0.00 0.00 0.00 75 1010.4
20260903151531 28 173 8.0 24.1 0.00 0.00 0.00 75 1010.4
20260903151021 28 192 11.3 24.1 0.00 0.00 0.00 75 1010.3
20260903150510 28 222 6.4 17.7 0.00 0.00 0.00 76 1010.3
20260903150054 28 207 6.4 19.3 0.00 0.00 0.00 76 1010.3
20260903145539 28 194 12.9 19.3 0.00 0.00 0.00 76 1010.3
20260903145028 28 217 8.0 24.1 0.00 0.00 0.00 76 1010.4
20260903144517 28 229 12.9 19.3 0.00 0.00 0.00 75 1010.4
20260903144006 28 202 11.3 22.5 0.00 0.00 0.00 76 1010.4
20260903143557 28 195 12.9 22.5 0.00 0.00 0.00 76 1010.4
20260903143047 28 175 6.4 17.7 0.00 0.00 0.00 78 1010.3
20260903142536 27 190 12.9 24.1 0.00 0.00 0.00 79 1010.3
20260903142025 27 194 12.9 24.1 0.00 0.00 0.00 79 1010.3
20260903141516 27 199 11.3 25.7 0.00 0.00 0.00 80 1010.4
20260903141007 27 205 12.9 22.5 0.00 0.00 0.00 80 1010.4
20260903140555 27 195 12.9 20.9 0.00 0.00 0.00 81 1010.4
20260903140033 27 229 11.3 27.4 0.00 0.00 0.00 82 1010.4
20260903135522 27 195 14.5 27.4 0.00 0.00 0.00 82 1010.5
20260903135011 26 171 11.3 22.5 0.00 0.00 0.00 83 1010.5
20260903134602 26 202 11.3 22.5 0.00 0.00 0.00 84 1010.6
20260903134051 26 203 6.4 20.9 0.00 0.00 0.00 85 1010.6
20260903133541 26 200 12.9 20.9 0.00 0.00 0.00 85 1010.6
20260903133030 26 196 11.3 16.1 0.00 0.00 0.00 86 1010.6
20260903132521 26 168 11.3 20.9 0.00 0.00 0.00 86 1010.7
20260903132008 26 188 11.3 20.9 0.00 0.00 0.00 87 1010.7
20260903131600 26 182 6.4 14.5 0.00 0.00 0.00 87 1010.6
20260903131051 25 222 6.4 12.9 0.00 0.00 0.00 87 1010.6
20260903130541 25 184 6.4 11.3 0.00 0.00 0.00 88 1010.5
20260903130022 25 173 4.8 12.9 0.00 0.00 0.00 88 1010.4
20260903125505 25 191 8.0 14.5 0.00 0.00 0.00 88 1010.4
20260903125056 25 207 6.4 11.3 0.00 0.00 0.00 88 1010.3
20260903124546 25 201 4.8 9.7 0.00 0.00 0.00 88 1010.4
20260903124035 25 178 3.2 11.3 0.00 0.00 0.00 88 1010.3
20260903123524 25 161 4.8 11.3 0.00 0.00 0.00 88 1010.3
20260903123016 25 156 1.6 9.7 0.00 0.00 0.00 88 1010.2
20260903122503 25 190 3.2 12.9 0.00 0.00 0.00 88 1010.1
20260903122054 25 173 4.8 12.9 0.00 0.00 0.00 88 1010.0
20260903121547 25 173 6.4 11.3 0.00 0.00 0.00 88 1010.1
20260903121032 25 209 3.2 9.7 0.00 0.00 0.00 88 1010.1
20260903120523 25 212 3.2 14.5 0.00 0.00 0.00 89 1010.1
20260903120106 25 192 4.8 14.5 0.00 0.00 0.00 89 1010.1
20260903115554 25 198 4.8 14.5 0.00 0.00 0.00 89 1010.0
20260903115040 25 180 4.8 11.3 0.00 0.00 0.00 89 1010.0
20260903114534 25 184 4.8 11.3 0.00 0.00 0.00 89 1010.0
20260903114019 25 209 4.8 12.9 0.00 0.00 0.00 89 1010.0
20260903113508 25 179 8.0 12.9 0.00 0.00 0.00 89 1010.0
20260903113102 25 187 4.8 12.9 0.00 0.00 0.00 89 1010.0
20260903112549 25 180 4.8 12.9 0.00 0.00 0.00 89 1009.9
20260903112037 25 171 6.4 12.9 0.00 0.00 0.00 89 1010.0
20260903111528 25 183 6.4 12.9 0.00 0.00 0.00 90 1010.0
20260903111017 25 188 4.8 11.3 0.00 0.00 0.00 90 1009.9
20260903110506 25 136 3.2 11.3 0.00 0.00 0.00 90 1009.8
20260903110110 25 190 6.4 11.3 0.00 0.00 0.00 90 1009.8
20260903105533 25 170 0.0 12.9 0.00 0.00 0.00 90 1009.9
20260903105023 25 201 6.4 12.9 0.00 0.00 0.00 90 1009.9
20260903104513 25 169 3.2 11.3 0.00 0.00 0.00 90 1009.9
20260903104002 25 146 3.2 12.9 0.00 0.00 0.00 89 1009.8
20260903103557 25 182 4.8 12.9 0.00 0.00 0.00 89 1009.8
20260903103042 25 165 4.8 11.3 0.00 0.00 0.00 89 1009.8
20260903102532 25 167 1.6 8.0 0.00 0.00 0.00 89 1009.8
20260903102020 25 166 1.6 8.0 0.00 0.00 0.00 89 1009.7
20260903101510 25 183 1.6 6.4 0.00 0.00 0.00 89 1009.7
20260903101103 25 174 3.2 9.7 0.00 0.00 0.00 89 1009.8
20260903100550 25 163 1.6 9.7 0.00 0.00 0.00 89 1009.7
20260903100031 25 137 3.2 12.9 0.00 0.00 0.00 88 1009.7
20260903095516 25 155 4.8 12.9 0.00 0.00 0.00 88 1009.7
20260903095006 25 131 3.2 11.3 0.00 0.00 0.00 88 1009.7
20260903094601 25 178 4.8 9.7 0.00 0.00 0.00 88 1009.6
20260903094047 25 177 4.8 11.3 0.00 0.00 0.00 88 1009.7
20260903093535 25 169 3.2 11.3 0.00 0.00 0.00 87 1009.8
20260903093025 25 177 1.6 9.7 0.00 0.00 0.00 87 1009.8
20260903092514 25 169 4.8 11.3 0.00 0.00 0.00 87 1009.8
20260903092004 25 148 1.6 9.7 0.00 0.00 0.00 87 1009.8
20260903091554 25 192 3.2 9.7 0.00 0.00 0.00 86 1009.8
20260903091048 25 156 3.2 11.3 0.00 0.00 0.00 86 1009.8
20260903090533 25 161 4.8 11.3 0.00 0.00 0.00 86 1009.8
20260903090011 25 146 3.2 12.9 0.00 0.00 0.00 86 1009.9
20260903085601 25 157 1.6 9.7 0.00 0.00 0.00 86 1009.9
20260903085050 26 183 1.6 12.9 0.00 0.00 0.00 85 1009.9
20260903084540 26 186 3.2 12.9 0.00 0.00 0.00 85 1009.9
20260903084029 26 177 3.2 12.9 0.00 0.00 0.00 85 1010.0
20260903083518 26 203 4.8 12.9 0.00 0.00 0.00 85 1010.0
20260903083008 26 177 4.8 11.3 0.00 0.00 0.00 85 1010.0
20260903082559 26 177 3.2 11.3 0.00 0.00 0.00 84 1010.1
20260903082048 26 157 3.2 8.0 0.00 0.00 0.00 84 1010.1
20260903081542 26 150 1.6 6.4 0.00 0.00 0.00 84 1010.0
20260903081026 26 157 0.0 8.0 0.00 0.00 0.00 83 1010.1
20260903080517 26 157 0.0 8.0 0.00 0.00 0.00 83 1010.1
20260903080054 26 149 1.6 4.8 0.00 0.00 0.00 83 1010.1
20260903075545 26 153 1.6 11.3 0.00 0.00 0.00 83 1010.1
20260903075032 26 137 1.6 11.3 0.00 0.00 0.00 83 1010.1
20260903074522 26 134 1.6 11.3 0.00 0.00 0.00 82 1010.1
20260903074014 26 119 1.6 12.9 0.00 0.00 0.00 82 1010.2
20260903073602 26 136 4.8 12.9 0.00 0.00 0.00 82 1010.2
20260903073050 26 152 1.6 9.7 0.00 0.00 0.00 82 1010.2
20260903072542 26 159 1.6 14.5 0.00 0.00 0.00 82 1010.2
20260903072034 26 146 3.2 16.1 0.00 0.00 0.00 82 1010.2
20260903071515 26 169 6.4 16.1 0.00 0.00 0.00 81 1010.1
20260903071004 26 136 3.2 11.3 0.00 0.00 0.00 81 1010.0
20260903070558 26 147 4.8 11.3 0.00 0.00 0.00 80 1010.0
20260903070036 26 177 4.8 11.3 0.00 0.00 0.00 80 1010.1
20260903065522 27 169 6.4 12.9 0.00 0.00 0.00 80 1010.1
20260903065010 27 153 4.8 16.1 0.00 0.00 0.00 79 1010.2
20260903064605 27 147 8.0 16.1 0.00 0.00 0.00 79 1010.3
20260903064052 27 133 6.4 16.1 0.00 0.00 0.00 79 1010.3
20260903063541 27 161 6.4 16.1 0.00 0.00 0.00 78 1010.5
20260903063029 27 140 8.0 14.5 0.00 0.00 0.00 77 1010.5
20260903062518 27 129 4.8 22.5 0.00 0.00 0.00 77 1010.5
20260903062007 27 128 8.0 22.5 0.00 0.00 0.00 76 1010.4
20260903061602 27 119 6.4 17.7 0.00 0.00 0.00 75 1010.4
20260903061048 27 116 4.8 17.7 0.00 0.00 0.00 74 1010.3
20260903060537 27 149 8.0 16.1 0.00 0.00 0.00 73 1010.3
20260903060015 27 119 6.4 16.1 0.00 0.00 0.00 73 1010.5
20260903055502 28 111 6.4 16.1 0.00 0.00 0.00 72 1010.5
20260903055052 28 119 4.8 17.7 0.00 0.00 0.00 71 1010.5
20260903054547 28 134 4.8 17.7 0.00 0.00 0.00 70 1010.4
20260903054031 28 174 9.7 17.7 0.00 0.00 0.00 70 1010.4
20260903053520 28 116 4.8 14.5 0.00 0.00 0.00 69 1010.3
20260903053009 28 173 6.4 14.5 0.00 0.00 0.00 69 1010.3
20260903052600 28 165 4.8 14.5 0.00 0.00 0.00 68 1010.3
20260903052052 28 159 6.4 14.5 0.00 0.00 0.00 68 1010.1
20260903051541 28 157 8.0 14.5 0.00 0.00 0.00 68 1010.2
20260903051030 28 151 3.2 16.1 0.00 0.00 0.00 68 1010.2
20260903050521 28 130 8.0 16.1 0.00 0.00 0.00 68 1010.2
20260903050057 28 114 3.2 8.0 0.00 0.00 0.00 68 1010.1
20260903045546 28 118 4.8 11.3 0.00 0.00 0.00 67 1010.1
20260903045037 28 138 4.8 11.3 0.00 0.00 0.00 67 1010.0
20260903044525 28 142 1.6 6.4 0.00 0.00 0.00 65 1010.0
20260903044014 27 123 1.6 4.8 0.00 0.00 0.00 65 1009.9
20260903043503 27 135 1.6 6.4 0.00 0.00 0.00 65 1009.8
20260903043055 27 136 1.6 11.3 0.00 0.00 0.00 66 1009.8
20260903042544 27 124 3.2 11.3 0.00 0.00 0.00 66 1009.7
20260903042033 27 126 4.8 11.3 0.00 0.00 0.00 66 1009.8
20260903041526 27 128 3.2 11.3 0.00 0.00 0.00 67 1009.8
20260903041011 27 123 3.2 11.3 0.00 0.00 0.00 67 1009.7
20260903040602 27 123 1.6 9.7 0.00 0.00 0.00 67 1009.7
20260903040039 26 96 0.0 11.3 0.00 0.00 0.00 68 1009.6
20260903035528 26 105 3.2 11.3 0.00 0.00 0.00 69 1009.6
20260903035018 26 86 1.6 6.4 0.00 0.00 0.00 69 1009.5
20260903034507 26 78 0.0 3.2 0.00 0.00 0.00 68 1009.6
20260903034058 26 78 0.0 0.0 0.00 0.00 0.00 68 1009.4
20260903033546 26 78 0.0 0.0 0.00 0.00 0.00 68 1009.4
20260903033036 26 78 0.0 0.0 0.00 0.00 0.00 69 1009.4
20260903032528 26 78 0.0 0.0 0.00 0.00 0.00 68 1009.3
20260903032015 26 78 0.0 0.0 0.00 0.00 0.00 65 1009.2
20260903031504 27 78 0.0 0.0 0.00 0.00 0.00 65 1009.1
20260903031055 27 78 0.0 0.0 0.00 0.00 0.00 64 1009.1
20260903030544 27 78 0.0 0.0 0.00 0.00 0.00 63 1009.0
20260903030036 27 78 0.0 0.0 0.00 0.00 0.00 63 1009.0
20260903025511 27 78 0.0 0.0 0.00 0.00 0.00 63 1008.9
20260903025102 27 78 0.0 0.0 0.00 0.00 0.00 64 1008.8
20260903024551 27 78 0.0 0.0 0.00 0.00 0.00 63 1008.7
20260903024040 28 78 0.0 0.0 0.00 0.00 0.00 63 1008.7
20260903023533 28 78 0.0 0.0 0.00 0.00 0.00 62 1008.6
20260903023019 28 78 0.0 0.0 0.00 0.00 0.00 61 1008.5
20260903022510 28 78 0.0 0.0 0.00 0.00 0.00 60 1008.4
20260903022100 28 78 0.0 0.0 0.00 0.00 0.00 60 1008.4
20260903021604 29 78 0.0 0.0 0.00 0.00 0.00 59 1008.3
20260903021039 29 78 0.0 0.0 0.00 0.00 0.00 60 1008.2
20260903020528 30 78 0.0 0.0 0.00 0.00 0.00 59 1008.1
20260903020006 30 78 0.0 0.0 0.00 0.00 0.00 58 1008.0
20260903015556 30 78 0.0 0.0 0.00 0.00 0.00 57 1008.0
20260903015045 30 78 0.0 0.0 0.00 0.00 0.00 56 1007.9
20260903014536 31 78 0.0 0.0 0.00 0.00 0.00 55 1007.9
20260903014023 31 78 0.0 0.0 0.00 0.00 0.00 55 1007.8
20260903013512 31 78 0.0 0.0 0.00 0.00 0.00 55 1007.8
20260903013002 31 78 0.0 0.0 0.00 0.00 0.00 56 1007.8
20260903012553 32 78 0.0 0.0 0.00 0.00 0.00 54 1007.8
20260903012042 32 78 0.0 0.0 0.00 0.00 0.00 51 1007.8
20260903011540 32 78 0.0 0.0 0.00 0.00 0.00 51 1007.8
20260903011021 32 78 0.0 0.0 0.00 0.00 0.00 50 1007.8
20260903010511 33 78 0.0 0.0 0.00 0.00 0.00 50 1007.7
20260903010107 33 78 0.0 0.0 0.00 0.00 0.00 49 1007.7
20260903005541 33 78 0.0 0.0 0.00 0.00 0.00 49 1007.7
20260903005027 33 78 0.0 0.0 0.00 0.00 0.00 48 1007.7
20260903004527 33 78 0.0 0.0 0.00 0.00 0.00 46 1007.7
20260903004006 34 78 0.0 0.0 0.00 0.00 0.00 47 1007.7
20260903003557 34 78 0.0 0.0 0.00 0.00 0.00 46 1007.7
20260903003046 34 78 0.0 0.0 0.00 0.00 0.00 46 1007.7
20260903002537 35 117 0.0 0.0 0.00 0.00 0.00 46 1007.7
20260903002025 35 95 0.0 0.0 0.00 0.00 0.00 45 1007.7
20260903001514 35 95 0.0 4.8 0.00 0.00 0.00 45 1007.7
20260903001003 35 95 0.0 4.8 0.00 0.00 0.00 45 1007.7
20260903000557 35 108 0.0 4.8 0.00 0.00 0.00 44 1007.8
20260903000031 35 123 1.6 11.3 0.00 0.00 0.00 44 1007.7
20260902235521 35 129 0.0 11.3 0.00 0.00 0.00 43 1007.7
20260902235009 35 68 3.2 11.3 0.00 0.00 0.00 43 1007.8
20260902234602 35 137 1.6 6.4 0.00 0.00 0.00 43 1007.7
20260902234050 36 99 0.0 12.9 0.00 0.00 0.00 42 1007.7
20260902233539 36 80 3.2 14.5 0.00 0.00 0.00 41 1007.8
20260902233036 36 154 6.4 14.5 0.00 0.00 0.00 40 1007.8
20260902232519 36 147 3.2 11.3 0.00 0.00 0.00 40 1007.8
20260902232010 36 135 4.8 12.9 0.00 0.00 0.00 40 1007.8
20260902231559 36 96 3.2 17.7 0.00 0.00 0.00 40 1007.8
20260902231048 36 105 8.0 17.7 0.00 0.00 0.00 40 1007.7
20260902230539 36 139 6.4 12.9 0.00 0.00 0.00 41 1007.7
20260902230014 36 82 4.8 12.9 0.00 0.00 0.00 41 1007.7
20260902225505 36 100 4.8 11.3 0.00 0.00 0.00 42 1007.6
20260902225055 36 80 3.2 16.1 0.00 0.00 0.00 43 1007.6
20260902224544 36 117 6.4 16.1 0.00 0.00 0.00 43 1007.6
20260902224034 36 99 6.4 14.5 0.00 0.00 0.00 44 1007.7
20260902223523 35 57 6.4 14.5 0.00 0.00 0.00 45 1007.7
20260902223013 35 68 9.7 14.5 0.00 0.00 0.00 46 1007.7
20260902222502 35 98 6.4 14.5 0.00 0.00 0.00 47 1007.9
20260902222052 35 63 8.0 16.1 0.00 0.00 0.00 47 1007.9
20260902221542 34 84 8.0 14.5 0.00 0.00 0.00 47 1007.8
20260902221031 35 109 8.0 16.1 0.00 0.00 0.00 47 1007.9
20260902220520 35 85 8.0 19.3 0.00 0.00 0.00 46 1008.0
20260902220100 35 41 12.9 20.9 0.00 0.00 0.00 45 1008.0
20260902215549 36 92 9.7 20.9 0.00 0.00 0.00 44 1008.0
20260902215035 37 69 14.5 19.3 0.00 0.00 0.00 42 1007.9
20260902214524 37 111 4.8 16.1 0.00 0.00 0.00 41 1007.9
20260902214014 38 114 8.0 16.1 0.00 0.00 0.00 39 1007.9
20260902213504 38 180 4.8 16.1 0.00 0.00 0.00 37 1008.0
20260902213102 37 141 3.2 12.9 0.00 0.00 0.00 37 1008.0
20260902212544 37 187 6.4 12.9 0.00 0.00 0.00 37 1008.0
20260902212033 37 217 3.2 9.7 0.00 0.00 0.00 38 1008.0
20260902211522 38 340 1.6 8.0 0.00 0.00 0.00 38 1008.0
20260902211012 37 337 3.2 8.0 0.00 0.00 0.00 38 1008.1
20260902210502 37 227 1.6 16.1 0.00 0.00 0.00 38 1008.2
20260902210050 37 61 6.4 16.1 0.00 0.00 0.00 38 1008.1
20260902205530 37 122 3.2 12.9 0.00 0.00 0.00 39 1008.3
20260902205021 37 192 8.0 12.9 0.00 0.00 0.00 39 1008.5
20260902204515 37 145 1.6 8.0 0.00 0.00 0.00 38 1008.5
20260902204100 37 113 3.2 11.3 0.00 0.00 0.00 38 1008.6
20260902203549 37 219 0.0 17.7 0.00 0.00 0.00 38 1008.7
20260902203042 38 230 8.0 17.7 0.00 0.00 0.00 37 1008.8
20260902202528 38 190 9.7 17.7 0.00 0.00 0.00 37 1008.8
20260902202017 38 213 6.4 19.3 0.00 0.00 0.00 36 1008.8
20260902201511 38 188 8.0 16.1 0.00 0.00 0.00 36 1008.9
20260902201057 38 252 8.0 16.1 0.00 0.00 0.00 37 1009.0
20260902200547 38 181 9.7 16.1 0.00 0.00 0.00 37 1009.1
20260902200024 38 277 1.6 12.9 0.00 0.00 0.00 37 1009.2
20260902195513 38 301 6.4 14.5 0.00 0.00 0.00 37 1009.3
20260902195002 38 186 1.6 16.1 0.00 0.00 0.00 38 1009.4
20260902194556 37 163 6.4 16.1 0.00 0.00 0.00 39 1009.5
20260902194043 37 225 9.7 16.1 0.00 0.00 0.00 39 1009.6
20260902193533 37 158 8.0 16.1 0.00 0.00 0.00 40 1009.6
20260902193021 37 211 8.0 16.1 0.00 0.00 0.00 40 1009.6
20260902192511 37 308 9.7 27.4 0.00 0.00 0.00 41 1009.8
20260902192104 37 213 6.4 27.4 0.00 0.00 0.00 40 1009.9
20260902191552 37 173 3.2 11.3 0.00 0.00 0.00 39 1010.0
20260902191044 37 153 3.2 9.7 0.00 0.00 0.00 41 1010.0
20260902190529 36 226 0.0 9.7 0.00 0.00 0.00 41 1010.1
20260902190007 36 355 1.6 17.7 0.00 0.00 0.00 41 1010.2
20260902185558 36 118 3.2 17.7 0.00 0.00 0.00 40 1010.3
20260902185048 37 97 8.0 16.1 0.00 0.00 0.00 40 1010.3
20260902184537 37 261 0.0 14.5 0.00 0.00 0.00 41 1010.4
20260902184025 36 269 4.8 14.5 0.00 0.00 0.00 42 1010.5
20260902183515 36 34 4.8 14.5 0.00 0.00 0.00 41 1010.6
20260902183005 36 97 8.0 14.5 0.00 0.00 0.00 41 1010.7
20260902182556 36 90 3.2 14.5 0.00 0.00 0.00 41 1010.8
20260902182044 36 258 6.4 16.1 0.00 0.00 0.00 42 1010.9
20260902181534 36 210 4.8 17.7 0.00 0.00 0.00 42 1011.0
20260902181024 36 64 1.6 12.9 0.00 0.00 0.00 44 1011.1
20260902180513 36 120 4.8 14.5 0.00 0.00 0.00 44 1011.2
20260902180058 35 225 9.7 16.1 0.00 0.00 0.00 45 1011.4
20260902175541 35 344 9.7 16.1 0.00 0.00 0.00 44 1011.4
20260902175030 35 128 1.6 17.7 0.00 0.00 0.00 45 1011.5
20260902174520 35 325 4.8 17.7 0.00 0.00 0.00 45 1011.5
20260902174009 35 232 11.3 17.7 0.00 0.00 0.00 45 1011.7
20260902173601 35 238 6.4 16.1 0.00 0.00 0.00 46 1011.7
20260902173049 35 300 1.6 11.3 0.00 0.00 0.00 46 1011.8
20260902172541 35 37 0.0 12.9 0.00 0.00 0.00 47 1011.8
20260902172031 35 325 3.2 14.5 0.00 0.00 0.00 47 1011.9
20260902171517 35 227 6.4 14.5 0.00 0.00 0.00 47 1012.0
20260902171005 35 194 3.2 14.5 0.00 0.00 0.00 47 1012.1
20260902170557 35 262 3.2 22.5 0.00 0.00 0.00 47 1012.1
20260902170034 35 194 9.7 22.5 0.00 0.00 0.00 49 1012.2
20260902165524 35 176 0.0 16.1 0.00 0.00 0.00 49 1012.3
20260902165013 35 212 6.4 16.1 0.00 0.00 0.00 49 1012.4
20260902164502 34 188 8.0 16.1 0.00 0.00 0.00 50 1012.4
20260902164053 34 249 9.7 16.1 0.00 0.00 0.00 50 1012.4
20260902163543 34 157 4.8 12.9 0.00 0.00 0.00 51 1012.4
20260902163032 33 190 4.8 12.9 0.00 0.00 0.00 50 1012.5
20260902162521 33 240 4.8 14.5 0.00 0.00 0.00 51 1012.4
20260902162010 33 254 4.8 16.1 0.00 0.00 0.00 51 1012.6
20260902161604 33 184 3.2 16.1 0.00 0.00 0.00 52 1012.6
20260902161053 33 187 6.4 16.1 0.00 0.00 0.00 51 1012.6
20260902160543 33 227 9.7 16.1 0.00 0.00 0.00 51 1012.6
20260902160017 32 202 4.8 14.5 0.00 0.00 0.00 53 1012.6
20260902155506 32 198 4.8 17.7 0.00 0.00 0.00 54 1012.6
20260902155058 32 219 6.4 17.7 0.00 0.00 0.00 52 1012.5
20260902154606 32 209 9.7 17.7 0.00 0.00 0.00 52 1012.5